Weather History for Palma de Mallorca, Spain

Change the Weather History Date:

Friday, November 30, 2012

  Actual Average Record
Temperature  
Mean Temperature 47 °F -  
Max Temperature 55 °F 59 °F 68 °F (1996)
Min Temperature 39 °F 41 °F 32 °F (2013)
Degree Days  
Heating Degree Days 18    
Moisture  
Dew Point 41 °F    
Average Humidity 81    
Maximum Humidity 100    
Minimum Humidity 48    
Precipitation  
Precipitation 0.00 in 0.06 in - ()
Sea Level Pressure  
Sea Level Pressure 29.64 in    
Wind  
Wind Speed 3 mph ()    
Max Wind Speed 12 mph    
Max Gust Speed 22 mph    
Visibility 7.0 miles    
Events Rain    
Averages and records for this station are not official NWS values.
T = Trace of Precipitation, MM = Missing Value Source: Averaged Metar Reports

Daily Weather History Graph

Daily Weather History Graph

Search for Another Location

Airport:

Trip Planner

Search our weather history database for the weather conditions in past years. The results will help you decide how hot, cold, wet, or windy it might be!

Date:

Astronomy

Nov. 30, 2012 Rise Set
Actual Time 7:49 AM CET 5:25 PM CET
Civil Twilight 7:19 AM CET 5:55 PM CET
Nautical Twilight 6:46 AM CET 6:28 PM CET
Astronomical Twilight 6:14 AM CET 7:01 PM CET
Moon 7:06 PM CET (11/30) 9:10 AM CET (11/30)
Length of Visible Light 10h 35m
Length of Day
9h 36m
Full, 97% of the Moon is Illuminated
Nov 30
Full
Dec 6
Last Quarter
Dec 13
New
Dec 20
First Quarter
Dec 28
Full

Hourly Weather History & Observations

Time (CET) Temp. Windchill Dew Point Humidity Pressure Visibility Wind Dir Wind Speed Gust Speed Precip Events Conditions
12:00 AM 50.0 °F - 42.8 °F 76% 29.65 in 6.2 mi SW 1.2 mph - N/A   Partly Cloudy
12:30 AM 50.0 °F - 41.0 °F 71% 29.65 in 6.2 mi Calm Calm - N/A   Partly Cloudy
1:00 AM 45 °F - 38 °F 68% 29.66 in 17 mi Calm Calm - -   Scattered Clouds
1:00 AM 46.4 °F - 41.0 °F 81% 29.65 in 6.2 mi Variable 1.2 mph - N/A   Partly Cloudy
1:30 AM 46.4 °F 41.1 °F 41.0 °F 81% 29.65 in 6.2 mi NE 11.5 mph - N/A   Partly Cloudy
2:00 AM 46.4 °F 43.5 °F 42.8 °F 87% 29.65 in 6.2 mi ENE 5.8 mph - N/A   Partly Cloudy
2:30 AM 44.6 °F - 42.8 °F 93% 29.65 in 6.2 mi Calm Calm - N/A   Partly Cloudy
3:00 AM 46.4 °F 41.9 °F 42.8 °F 87% 29.65 in 6.2 mi NNE 9.2 mph - N/A   Partly Cloudy
3:30 AM 44.6 °F - 42.8 °F 93% 29.65 in 6.2 mi Calm Calm - N/A   Partly Cloudy
4:00 AM 42.8 °F - 41.0 °F 93% 29.65 in 6.2 mi Variable 1.2 mph - N/A   Partly Cloudy
4:30 AM 41.0 °F - 39.2 °F 93% 29.62 in 6.2 mi East 2.3 mph - N/A   Partly Cloudy
5:00 AM 41.0 °F - 39.2 °F 93% 29.62 in 6.2 mi Calm Calm - N/A   Partly Cloudy
5:30 AM 41.0 °F - 41.0 °F 100% 29.62 in 6.2 mi NNW 2.3 mph - N/A   Partly Cloudy
6:00 AM 41.0 °F - 41.0 °F 100% 29.62 in 6.2 mi Calm Calm - N/A   Partly Cloudy
6:30 AM 42.8 °F - 41.0 °F 93% 29.62 in 6.2 mi Calm Calm - N/A   Partly Cloudy
7:00 AM 41 °F - 40 °F 92% 29.63 in 16 mi Calm Calm - -   Scattered Clouds
7:00 AM 42.8 °F - 41.0 °F 93% 29.62 in 6.2 mi Calm Calm - N/A   Partly Cloudy
7:30 AM 41.0 °F - 39.2 °F 93% 29.62 in 6.2 mi Calm Calm - N/A   Partly Cloudy
8:00 AM 41.0 °F - 39.2 °F 93% 29.62 in 6.2 mi Variable 2.3 mph - N/A   Scattered Clouds
8:30 AM 42.8 °F - 41.0 °F 93% 29.62 in 6.2 mi Variable 1.2 mph - N/A   Scattered Clouds
9:00 AM 42.8 °F - 41.0 °F 93% 29.62 in 6.2 mi Calm Calm - N/A   Scattered Clouds
9:30 AM 44.6 °F - 42.8 °F 93% 29.62 in 6.2 mi Variable 2.3 mph - N/A   Partly Cloudy
10:00 AM 48.2 °F - 46.4 °F 93% 29.62 in 6.2 mi Calm Calm - N/A   Partly Cloudy
10:30 AM 50.0 °F - 44.6 °F 82% 29.62 in 6.2 mi Calm Calm - N/A   Partly Cloudy
11:00 AM 51.8 °F - 46.4 °F 82% 29.62 in 6.2 mi Variable 1.2 mph - N/A   Partly Cloudy
11:30 AM 53.6 °F - 42.8 °F 67% 29.62 in 6.2 mi NNW 6.9 mph - N/A   Partly Cloudy
12:00 PM 50.0 °F - 42.8 °F 76% 29.62 in 6.2 mi West 5.8 mph - N/A Rain Light Rain
12:30 PM 51.8 °F - 44.6 °F 76% 29.62 in 6.2 mi Variable 2.3 mph - N/A   Scattered Clouds
1:00 PM 52 °F - 38 °F 48% 29.62 in 16 mi North 4.6 mph - -   Partly Cloudy
1:00 PM 53.6 °F - 41.0 °F 62% 29.62 in 6.2 mi Variable 1.2 mph - N/A   Scattered Clouds
1:30 PM 53.6 °F - 41.0 °F 62% 29.59 in 6.2 mi Variable 1.2 mph - N/A   Scattered Clouds
2:00 PM 55.4 °F - 41.0 °F 58% 29.59 in 6.2 mi Variable 2.3 mph - N/A   Scattered Clouds
2:30 PM 53.6 °F - 37.4 °F 54% 29.59 in 6.2 mi WNW 9.2 mph - N/A   Scattered Clouds
3:00 PM 53.6 °F - 37.4 °F 54% 29.59 in 6.2 mi WNW 6.9 mph 20.7 mph N/A   Partly Cloudy
3:30 PM 55.4 °F - 37.4 °F 51% 29.59 in 6.2 mi NW 9.2 mph 21.9 mph N/A   Partly Cloudy
4:00 PM 55.4 °F - 37.4 °F 51% 29.59 in 6.2 mi NNW 9.2 mph - N/A   Partly Cloudy
4:30 PM 53.6 °F - 39.2 °F 58% 29.59 in 6.2 mi ENE 8.1 mph - N/A   Partly Cloudy
5:00 PM 50.0 °F - 42.8 °F 76% 29.62 in 6.2 mi East 3.5 mph - N/A   Partly Cloudy
5:30 PM 50.0 °F - 42.8 °F 76% 29.62 in 6.2 mi ENE 4.6 mph - N/A   Partly Cloudy
6:00 PM 48.2 °F - 42.8 °F 82% 29.65 in 6.2 mi ENE 2.3 mph - N/A   Partly Cloudy
6:30 PM 46.4 °F 45.2 °F 42.8 °F 87% 29.65 in 6.2 mi ENE 3.5 mph - N/A   Partly Cloudy
7:00 PM 46 °F - 40 °F 72% 29.66 in 16 mi ENE 6.9 mph - -   Scattered Clouds
7:00 PM 46.4 °F 43.5 °F 42.8 °F 87% 29.65 in 6.2 mi NE 5.8 mph - N/A   Partly Cloudy
7:30 PM 44.6 °F 43.1 °F 41.0 °F 87% 29.65 in 6.2 mi NNE 3.5 mph - N/A   Partly Cloudy
8:00 PM 44.6 °F 43.1 °F 41.0 °F 87% 29.68 in 6.2 mi ENE 3.5 mph - N/A   Partly Cloudy
8:30 PM 46.4 °F - 41.0 °F 81% 29.68 in 6.2 mi ENE 2.3 mph - N/A   Partly Cloudy
9:00 PM 44.6 °F 42.2 °F 41.0 °F 87% 29.68 in 6.2 mi ENE 4.6 mph - N/A   Partly Cloudy
9:30 PM 44.6 °F 41.4 °F 41.0 °F 87% 29.68 in 6.2 mi East 5.8 mph - N/A   Partly Cloudy
10:00 PM 44.6 °F - 41.0 °F 87% 29.71 in 6.2 mi Variable 1.2 mph - N/A   Partly Cloudy
10:30 PM 44.6 °F - 41.0 °F 87% 29.71 in 6.2 mi Variable 2.3 mph - N/A   Partly Cloudy
11:00 PM 44.6 °F - 41.0 °F 87% 29.71 in 6.2 mi NE 2.3 mph - N/A   Partly Cloudy
11:30 PM 44.6 °F 43.1 °F 41.0 °F 87% 29.71 in 6.2 mi ENE 3.5 mph - N/A   Partly Cloudy